When you browse on this site, cookies collect data to enhance your experience and personalize the content and advertising you see.
Visit our Privacy Policy to learn more. By continuing to use the site, you agree to this use of cookies and data.
  • In Österreich
  • Länderverzeichnis
  • Für 7 Tage
  • Wassertemperatur
  • Satellitenkarten
  • Wetterkarte
  • News
  • Widgets
  • user-avatar
    Anmelden

    Stündliche Wetter Intschchon

    Heute, 26 Mai, Sonntag

    Zeit Temperatur Niederschläge Wind Luftdruck Luftfeuchtigkeit
    00:00 +24°C° 0 mm 2 m/S 760 mmHg 43%
    01:00 +24°C° 0 mm 1 m/S 760 mmHg 44%
    02:00 +23°C° 0 mm 1 m/S 760 mmHg 46%
    03:00 +23°C° 0 mm 1 m/S 760 mmHg 46%
    04:00 +23°C° 0 mm 1 m/S 760 mmHg 46%
    05:00 +23°C° 0 mm 1 m/S 760 mmHg 46%
    06:00 +25°C° 0 mm 2 m/S 760 mmHg 42%
    07:00 +26°C° 0 mm 2 m/S 760 mmHg 38%
    08:00 +27°C° 0 mm 2 m/S 760 mmHg 32%
    09:00 +28°C° 0 mm 3 m/S 759 mmHg 29%
    10:00 +30°C° 0 mm 3 m/S 759 mmHg 27%
    11:00 +32°C° 0 mm 4 m/S 758 mmHg 25%
    12:00 +32°C° 0 mm 4 m/S 758 mmHg 24%
    13:00 +32°C° 0 mm 5 m/S 758 mmHg 24%
    14:00 +30°C° 0 mm 4 m/S 758 mmHg 25%
    15:00 +30°C° 0 mm 4 m/S 757 mmHg 27%
    16:00 +29°C° 0 mm 4 m/S 757 mmHg 28%
    17:00 +29°C° 0 mm 4 m/S 757 mmHg 29%
    18:00 +28°C° 0 mm 4 m/S 757 mmHg 33%
    19:00 +27°C° 0 mm 3 m/S 757 mmHg 36%
    20:00 +25°C° 0 mm 3 m/S 757 mmHg 43%
    21:00 +25°C° 0 mm 3 m/S 757 mmHg 45%
    22:00 +25°C° 0 mm 4 m/S 757 mmHg 46%
    23:00 +25°C° 0 mm 5 m/S 757 mmHg 47%

    Morgen, 27 Mai, Montag

    Zeit Temperatur Niederschläge Wind Luftdruck Luftfeuchtigkeit
    00:00 +25°C° 0.1 mm 5 m/S 756 mmHg 48%
    01:00 +23°C° 0.1 mm 6 m/S 756 mmHg 48%
    02:00 +23°C° 0.1 mm 6 m/S 755 mmHg 49%
    03:00 +22°C° 1 mm 6 m/S 755 mmHg 54%
    04:00 +22°C° 1 mm 7 m/S 754 mmHg 60%
    05:00 +21°C° 1 mm 8 m/S 753 mmHg 65%
    06:00 +21°C° 1 mm 8 m/S 752 mmHg 68%
    07:00 +21°C° 1 mm 8 m/S 752 mmHg 71%
    08:00 +21°C° 1 mm 8 m/S 751 mmHg 74%
    09:00 +21°C° 1.1 mm 8 m/S 750 mmHg 76%
    10:00 +21°C° 1.1 mm 7 m/S 750 mmHg 78%
    11:00 +21°C° 1.1 mm 7 m/S 749 mmHg 81%
    12:00 +21°C° 0.2 mm 7 m/S 749 mmHg 82%
    13:00 +21°C° 0.2 mm 7 m/S 749 mmHg 83%
    14:00 +21°C° 0.2 mm 7 m/S 748 mmHg 85%
    15:00 +21°C° 0 mm 7 m/S 749 mmHg 80%
    16:00 +21°C° 0 mm 8 m/S 749 mmHg 75%
    17:00 +21°C° 0 mm 9 m/S 750 mmHg 70%
    18:00 +19°C° 0 mm 9 m/S 750 mmHg 65%
    19:00 +18°C° 0 mm 9 m/S 751 mmHg 61%
    20:00 +17°C° 0 mm 9 m/S 752 mmHg 56%
    21:00 +17°C° 0 mm 9 m/S 753 mmHg 53%
    22:00 +17°C° 0 mm 9 m/S 754 mmHg 50%
    23:00 +17°C° 0 mm 10 m/S 754 mmHg 47%

    übermorgen, 28 Mai, Dienstag

    Zeit Temperatur Niederschläge Wind Luftdruck Luftfeuchtigkeit
    00:00 +17°C° 0 mm 9 m/S 755 mmHg 47%
    01:00 +17°C° 0 mm 8 m/S 755 mmHg 47%
    02:00 +17°C° 0 mm 7 m/S 756 mmHg 47%
    03:00 +17°C° 0 mm 6 m/S 756 mmHg 48%
    04:00 +17°C° 0 mm 5 m/S 756 mmHg 50%
    05:00 +17°C° 0 mm 5 m/S 757 mmHg 52%
    06:00 +19°C° 0 mm 5 m/S 757 mmHg 45%
    07:00 +20°C° 0 mm 5 m/S 757 mmHg 38%
    08:00 +21°C° 0 mm 5 m/S 757 mmHg 31%
    09:00 +22°C° 0 mm 5 m/S 757 mmHg 28%
    10:00 +23°C° 0 mm 5 m/S 757 mmHg 25%
    11:00 +25°C° 0 mm 5 m/S 757 mmHg 23%
    12:00 +26°C° 0 mm 6 m/S 757 mmHg 23%
    13:00 +26°C° 0 mm 6 m/S 757 mmHg 24%
    14:00 +27°C° 0 mm 7 m/S 756 mmHg 24%
    15:00 +26°C° 0 mm 7 m/S 756 mmHg 26%
    16:00 +24°C° 0 mm 6 m/S 756 mmHg 28%
    17:00 +23°C° 0 mm 6 m/S 755 mmHg 29%
    18:00 +22°C° 0 mm 7 m/S 756 mmHg 34%
    19:00 +22°C° 0 mm 7 m/S 756 mmHg 39%
    20:00 +21°C° 0 mm 7 m/S 756 mmHg 44%
    21:00 +20°C° 0 mm 7 m/S 756 mmHg 51%
    22:00 +20°C° 0 mm 6 m/S 757 mmHg 57%
    23:00 +20°C° 0 mm 6 m/S 757 mmHg 63%

    29 Mai, Mittwoch

    Zeit Temperatur Niederschläge Wind Luftdruck Luftfeuchtigkeit
    00:00 +19°C° 0 mm 5 m/S 757 mmHg 64%
    01:00 +19°C° 0 mm 4 m/S 757 mmHg 65%
    02:00 +19°C° 0 mm 3 m/S 756 mmHg 66%
    03:00 +19°C° 0 mm 3 m/S 756 mmHg 66%
    04:00 +19°C° 0 mm 3 m/S 756 mmHg 66%
    05:00 +19°C° 0 mm 2 m/S 756 mmHg 66%
    06:00 +20°C° 0 mm 3 m/S 756 mmHg 58%
    07:00 +21°C° 0 mm 3 m/S 756 mmHg 50%
    08:00 +23°C° 0 mm 4 m/S 756 mmHg 42%
    09:00 +25°C° 0 mm 4 m/S 756 mmHg 36%
    10:00 +26°C° 0 mm 5 m/S 756 mmHg 30%
    11:00 +27°C° 0 mm 5 m/S 756 mmHg 25%
    12:00 +28°C° 0 mm 5 m/S 756 mmHg 24%
    13:00 +28°C° 0 mm 6 m/S 755 mmHg 24%
    14:00 +28°C° 0 mm 6 m/S 755 mmHg 23%
    15:00 +28°C° 0 mm 5 m/S 755 mmHg 25%
    16:00 +27°C° 0 mm 5 m/S 755 mmHg 27%
    17:00 +26°C° 0 mm 5 m/S 755 mmHg 28%
    18:00 +25°C° 0 mm 4 m/S 755 mmHg 33%
    19:00 +23°C° 0 mm 4 m/S 756 mmHg 37%
    20:00 +22°C° 0 mm 3 m/S 756 mmHg 42%
    21:00 +22°C° 0 mm 3 m/S 756 mmHg 48%
    22:00 +21°C° 0 mm 4 m/S 756 mmHg 54%
    23:00 +21°C° 0 mm 4 m/S 757 mmHg 60%

    30 Mai, Donnerstag

    Zeit Temperatur Niederschläge Wind Luftdruck Luftfeuchtigkeit
    00:00 +20°C° 0 mm 4 m/S 756 mmHg 62%
    01:00 +20°C° 0 mm 4 m/S 756 mmHg 64%
    02:00 +19°C° 0 mm 4 m/S 756 mmHg 67%
    03:00 +19°C° 0 mm 4 m/S 756 mmHg 67%
    04:00 +19°C° 0 mm 4 m/S 756 mmHg 68%
    05:00 +19°C° 0 mm 4 m/S 756 mmHg 68%
    06:00 +20°C° 0 mm 4 m/S 756 mmHg 62%
    07:00 +22°C° 0 mm 4 m/S 756 mmHg 55%
    08:00 +23°C° 0 mm 4 m/S 756 mmHg 49%
    09:00 +25°C° 0 mm 5 m/S 756 mmHg 43%
    10:00 +26°C° 0 mm 6 m/S 756 mmHg 37%
    11:00 +27°C° 0 mm 6 m/S 756 mmHg 32%
    12:00 +27°C° 0 mm 7 m/S 755 mmHg 33%
    13:00 +26°C° 0 mm 7 m/S 755 mmHg 34%
    14:00 +26°C° 0 mm 7 m/S 754 mmHg 35%
    15:00 +24°C° 0 mm 7 m/S 754 mmHg 37%
    16:00 +24°C° 0 mm 7 m/S 754 mmHg 39%
    17:00 +23°C° 0 mm 6 m/S 754 mmHg 41%
    18:00 +22°C° 0 mm 6 m/S 754 mmHg 46%
    19:00 +21°C° 0 mm 6 m/S 755 mmHg 50%
    20:00 +21°C° 0 mm 6 m/S 755 mmHg 54%
    21:00 +20°C° 0 mm 5 m/S 755 mmHg 59%
    22:00 +20°C° 0 mm 5 m/S 755 mmHg 64%
    23:00 +20°C° 0 mm 5 m/S 755 mmHg 70%

    31 Mai, Freitag

    Zeit Temperatur Niederschläge Wind Luftdruck Luftfeuchtigkeit
    00:00 +19°C° 0 mm 5 m/S 755 mmHg 73%
    01:00 +19°C° 0 mm 4 m/S 755 mmHg 77%
    02:00 +19°C° 0 mm 4 m/S 754 mmHg 81%
    03:00 +19°C° 0 mm 3 m/S 754 mmHg 83%
    04:00 +19°C° 0 mm 2 m/S 755 mmHg 84%
    05:00 +19°C° 0 mm 2 m/S 755 mmHg 85%
    06:00 +20°C° 0 mm 2 m/S 755 mmHg 77%
    07:00 +21°C° 0 mm 2 m/S 755 mmHg 69%
    08:00 +23°C° 0 mm 2 m/S 755 mmHg 61%
    09:00 +24°C° 0 mm 3 m/S 755 mmHg 52%
    10:00 +25°C° 0 mm 3 m/S 755 mmHg 42%
    11:00 +27°C° 0 mm 4 m/S 755 mmHg 33%
    12:00 +27°C° 0 mm 5 m/S 754 mmHg 32%
    13:00 +27°C° 0 mm 5 m/S 754 mmHg 31%
    14:00 +27°C° 0 mm 6 m/S 754 mmHg 31%
    15:00 +26°C° 0 mm 6 m/S 754 mmHg 34%
    16:00 +26°C° 0 mm 6 m/S 754 mmHg 38%
    17:00 +24°C° 0 mm 6 m/S 754 mmHg 41%
    18:00 +23°C° 0 mm 5 m/S 754 mmHg 44%
    19:00 +22°C° 0 mm 4 m/S 755 mmHg 48%
    20:00 +22°C° 0 mm 4 m/S 755 mmHg 51%
    21:00 +21°C° 0 mm 3 m/S 755 mmHg 52%
    22:00 +21°C° 0 mm 3 m/S 756 mmHg 54%
    23:00 +20°C° 0 mm 2 m/S 756 mmHg 55%
    Mehr zeigen